| time (UTC) | temp F | wind direction | speed MPH | gust MPH | rain 1hr in | rain 24hr in | rain mn in | humidity % | barometer mb |
| 20260506004527 | 70 | 292 | 3.0 | 9.0 | 0.00 | 0.00 | 0.00 | 55 | 1018.6 |
| 20260506003025 | 70 | 260 | 3.0 | 11.0 | 0.00 | 0.00 | 0.00 | 54 | 1018.9 |
| 20260506001524 | 71 | 296 | 4.0 | 10.0 | 0.00 | 0.00 | 0.00 | 54 | 1018.7 |
| 20260506000023 | 69 | 307 | 5.0 | 9.0 | 0.00 | 0.00 | 0.00 | 56 | 1018.8 |
| 20260505234521 | 66 | 307 | 4.0 | 9.0 | 0.00 | 0.00 | 0.00 | 60 | 1018.9 |
| 20260505233018 | 69 | 297 | 5.0 | 11.0 | 0.00 | 0.00 | 0.00 | 56 | 1018.8 |
| 20260505231526 | 67 | 289 | 5.0 | 11.0 | 0.00 | 0.00 | 0.00 | 56 | 1018.9 |
| 20260505230021 | 66 | 274 | 6.0 | 12.0 | 0.00 | 0.00 | 0.00 | 58 | 1018.8 |
| 20260505224508 | 64 | 294 | 6.0 | 13.0 | 0.00 | 0.00 | 0.00 | 60 | 1018.9 |
| 20260505223003 | 63 | 280 | 6.0 | 12.0 | 0.00 | 0.00 | 0.00 | 64 | 1018.8 |
| 20260505221601 | 60 | 311 | 6.0 | 12.0 | 0.00 | 0.00 | 0.00 | 68 | 1019.0 |
| 20260505220059 | 58 | 303 | 9.0 | 14.0 | 0.00 | 0.00 | 0.00 | 70 | 1018.9 |
| 20260505214600 | 57 | 283 | 8.0 | 13.0 | 0.00 | 0.00 | 0.00 | 72 | 1019.0 |
| 20260505213055 | 56 | 297 | 7.0 | 13.0 | 0.00 | 0.00 | 0.00 | 73 | 1019.0 |
| 20260505211607 | 56 | 316 | 5.0 | 15.0 | 0.00 | 0.00 | 0.00 | 74 | 1018.9 |
| 20260505210053 | 55 | 307 | 6.0 | 13.0 | 0.00 | 0.00 | 0.00 | 74 | 1018.9 |
| 20260505204552 | 55 | 303 | 8.0 | 13.0 | 0.00 | 0.00 | 0.00 | 73 | 1018.8 |
| 20260505203049 | 55 | 302 | 7.0 | 13.0 | 0.00 | 0.00 | 0.00 | 73 | 1018.7 |
| 20260505201548 | 55 | 295 | 7.0 | 13.0 | 0.00 | 0.00 | 0.00 | 73 | 1018.6 |
| 20260505200048 | 55 | 284 | 7.0 | 12.0 | 0.00 | 0.00 | 0.00 | 73 | 1018.6 |
| 20260505194551 | 56 | 304 | 5.0 | 11.0 | 0.00 | 0.00 | 0.00 | 72 | 1018.6 |
| 20260505193041 | 56 | 297 | 6.0 | 12.0 | 0.00 | 0.00 | 0.00 | 72 | 1018.6 |
| 20260505191541 | 56 | 288 | 7.0 | 12.0 | 0.00 | 0.00 | 0.00 | 72 | 1018.6 |
| 20260505190040 | 56 | 294 | 6.0 | 13.0 | 0.00 | 0.00 | 0.00 | 71 | 1018.5 |
| 20260505184536 | 56 | 284 | 8.0 | 14.0 | 0.00 | 0.00 | 0.00 | 71 | 1018.5 |
| 20260505183038 | 56 | 311 | 7.0 | 12.0 | 0.00 | 0.00 | 0.00 | 71 | 1018.5 |
| 20260505181532 | 56 | 291 | 8.0 | 12.0 | 0.00 | 0.00 | 0.00 | 70 | 1018.5 |
| 20260505180034 | 56 | 279 | 6.0 | 12.0 | 0.00 | 0.00 | 0.00 | 70 | 1018.3 |
| 20260505174537 | 57 | 299 | 7.0 | 15.0 | 0.00 | 0.00 | 0.00 | 70 | 1018.3 |
| 20260505173023 | 57 | 283 | 7.0 | 13.0 | 0.00 | 0.00 | 0.00 | 70 | 1018.4 |
| 20260505171524 | 57 | 290 | 8.0 | 13.0 | 0.00 | 0.00 | 0.00 | 70 | 1018.5 |
| 20260505170019 | 57 | 299 | 7.0 | 12.0 | 0.00 | 0.00 | 0.00 | 70 | 1018.5 |
| 20260505164516 | 57 | 299 | 6.0 | 11.0 | 0.00 | 0.00 | 0.00 | 69 | 1018.6 |
| 20260505163013 | 57 | 293 | 6.0 | 13.0 | 0.00 | 0.00 | 0.00 | 68 | 1018.6 |
| 20260505161511 | 58 | 292 | 6.0 | 12.0 | 0.00 | 0.00 | 0.00 | 68 | 1018.7 |
| 20260505153002 | 58 | 305 | 5.0 | 13.0 | 0.00 | 0.00 | 0.00 | 67 | 1019.1 |
| 20260505151559 | 59 | 299 | 7.0 | 13.0 | 0.00 | 0.00 | 0.00 | 67 | 1019.0 |
| 20260505130104 | 60 | 315 | 4.0 | 8.0 | 0.00 | 0.01 | 0.01 | 70 | 1019.3 |
| 20260505124544 | 60 | 297 | 4.0 | 9.0 | 0.00 | 0.01 | 0.01 | 71 | 1019.4 |
| 20260505123044 | 60 | 285 | 4.0 | 8.0 | 0.00 | 0.01 | 0.01 | 71 | 1019.4 |
| 20260505121539 | 60 | 281 | 4.0 | 8.0 | 0.00 | 0.01 | 0.01 | 72 | 1019.4 |
| 20260505120039 | 60 | 299 | 4.0 | 8.0 | 0.00 | 0.01 | 0.01 | 74 | 1019.3 |
| 20260505114538 | 60 | 251 | 1.0 | 3.0 | 0.00 | 0.01 | 0.01 | 73 | 1019.3 |
| 20260505113039 | 60 | 205 | 0.0 | 2.0 | 0.00 | 0.01 | 0.01 | 74 | 1019.4 |
| 20260505111540 | 59 | 205 | 0.0 | 2.0 | 0.00 | 0.01 | 0.01 | 74 | 1019.2 |
| 20260505101532 | 60 | 187 | 0.0 | 5.0 | 0.00 | 0.01 | 0.01 | 72 | 1018.9 |
| 20260505100033 | 60 | 186 | 1.0 | 5.0 | 0.00 | 0.01 | 0.01 | 71 | 1018.9 |
| 20260505094529 | 61 | 212 | 0.0 | 4.0 | 0.00 | 0.01 | 0.01 | 71 | 1018.7 |
| 20260505093028 | 61 | 190 | 1.0 | 5.0 | 0.00 | 0.01 | 0.01 | 72 | 1018.6 |
| 20260505091526 | 61 | 186 | 0.0 | 4.0 | 0.00 | 0.01 | 0.01 | 71 | 1018.4 |
| 20260505090024 | 61 | 187 | 1.0 | 4.0 | 0.00 | 0.01 | 0.01 | 70 | 1018.1 |
| 20260505084526 | 62 | 187 | 1.0 | 5.0 | 0.00 | 0.01 | 0.01 | 68 | 1018.0 |
| 20260505083021 | 62 | 193 | 2.0 | 5.0 | 0.00 | 0.01 | 0.01 | 66 | 1017.7 |
| 20260505081529 | 63 | 189 | 1.0 | 5.0 | 0.00 | 0.01 | 0.01 | 65 | 1017.7 |
| 20260505080021 | 63 | 182 | 4.0 | 10.0 | 0.00 | 0.01 | 0.01 | 63 | 1017.7 |
| 20260505074522 | 64 | 177 | 3.0 | 8.0 | 0.00 | 0.01 | 0.01 | 63 | 1017.4 |
| 20260505073023 | 65 | 188 | 2.0 | 4.0 | 0.00 | 0.01 | 0.01 | 63 | 1017.0 |
| 20260505071539 | 66 | 195 | 2.0 | 6.0 | 0.00 | 0.01 | 0.01 | 63 | 1016.7 |
| 20260505070019 | 68 | 187 | 3.0 | 7.0 | 0.00 | 0.01 | 0.01 | 58 | 1016.7 |
| 20260505064523 | 69 | 196 | 3.0 | 9.0 | 0.00 | 0.01 | 0.01 | 58 | 1016.4 |
| 20260505063017 | 72 | 147 | 3.0 | 7.0 | 0.00 | 0.01 | 0.01 | 55 | 1016.2 |
| 20260505061517 | 79 | 244 | 0.0 | 6.0 | 0.00 | 0.01 | 0.01 | 35 | 1016.3 |
| 20260505060016 | 80 | 291 | 2.0 | 7.0 | 0.00 | 0.01 | 0.01 | 33 | 1016.1 |
| 20260505054516 | 80 | 297 | 3.0 | 8.0 | 0.00 | 0.01 | 0.01 | 35 | 1016.0 |
| 20260505053023 | 79 | 299 | 2.0 | 8.0 | 0.00 | 0.01 | 0.01 | 35 | 1016.0 |
| 20260505051520 | 79 | 289 | 2.0 | 10.0 | 0.00 | 0.01 | 0.01 | 35 | 1016.1 |
| 20260505041511 | 79 | 191 | 1.0 | 10.0 | 0.00 | 0.01 | 0.01 | 36 | 1015.5 |
| 20260505040006 | 79 | 242 | 2.0 | 10.0 | 0.00 | 0.01 | 0.01 | 37 | 1015.1 |
| 20260505034503 | 79 | 291 | 4.0 | 11.0 | 0.00 | 0.01 | 0.01 | 37 | 1015.2 |
| 20260505033004 | 78 | 317 | 4.0 | 11.0 | 0.00 | 0.01 | 0.01 | 37 | 1015.5 |
| 20260505031500 | 78 | 320 | 4.0 | 9.0 | 0.00 | 0.01 | 0.01 | 39 | 1015.6 |
| 20260505030104 | 77 | 287 | 5.0 | 12.0 | 0.00 | 0.01 | 0.01 | 39 | 1015.7 |
| 20260505024557 | 76 | 275 | 7.0 | 16.0 | 0.00 | 0.02 | 0.01 | 40 | 1015.7 |
| 20260505023058 | 76 | 290 | 7.0 | 16.0 | 0.00 | 0.02 | 0.01 | 40 | 1016.0 |
| 20260505021554 | 75 | 303 | 5.0 | 12.0 | 0.00 | 0.02 | 0.01 | 43 | 1016.0 |
| 20260505020055 | 75 | 309 | 7.0 | 15.0 | 0.00 | 0.02 | 0.01 | 43 | 1016.0 |
| 20260505014549 | 74 | 317 | 4.0 | 16.0 | 0.00 | 0.03 | 0.01 | 45 | 1016.1 |
| 20260505013047 | 73 | 311 | 9.0 | 17.0 | 0.00 | 0.03 | 0.01 | 46 | 1016.5 |
| 20260505011552 | 73 | 276 | 9.0 | 18.0 | 0.00 | 0.03 | 0.01 | 45 | 1016.5 |
| 20260505010048 | 73 | 283 | 7.0 | 16.0 | 0.00 | 0.03 | 0.01 | 46 | 1016.8 |